Radiation Dose at Monitoring Post of Fukushima Daini Nuclear Power Station
Date,Time,MP-1(microSv/h),MP-2(microSv/h),MP-3(microSv/h),MP-4(microSv/h),MP-5(microSv/h),MP-6(microSv/h),MP-7(microSv/h),Wind Direction,Wind Velocity(m/s),Rain
2021/05/30,00:00,0.164,0.151,0.237,0.231,0.233,0.128,0.080,west-northwest,5.4,No
2021/05/30,00:10,0.166,0.151,0.240,0.231,0.231,0.129,0.080,northwest,4.1,No
2021/05/30,00:20,0.165,0.150,0.238,0.232,0.233,0.129,0.079,west-northwest,3.7,No
2021/05/30,00:30,0.166,0.150,0.238,0.231,0.231,0.130,0.081,northwest,3.8,No
2021/05/30,00:40,0.165,0.151,0.237,0.232,0.234,0.129,0.080,northwest,3.9,No
2021/05/30,00:50,0.167,0.151,0.238,0.231,0.232,0.129,0.080,northwest,4.1,No
2021/05/30,01:00,0.164,0.151,0.237,0.231,0.233,0.129,0.080,northwest,4.0,No
2021/05/30,01:10,0.165,0.150,0.239,0.230,0.233,0.129,0.081,northwest,3.2,No
2021/05/30,01:20,0.166,0.151,0.238,0.232,0.233,0.129,0.081,northwest,3.2,No
2021/05/30,01:30,0.166,0.150,0.238,0.230,0.234,0.129,0.081,west-northwest,3.9,No
2021/05/30,01:40,0.166,0.149,0.238,0.232,0.233,0.129,0.080,northwest,3.4,No
2021/05/30,01:50,0.165,0.150,0.239,0.230,0.233,0.130,0.081,northwest,3.0,No
2021/05/30,02:00,0.166,0.150,0.238,0.230,0.231,0.129,0.081,west-northwest,3.7,No
2021/05/30,02:10,0.165,0.151,0.239,0.229,0.233,0.130,0.080,west-northwest,3.9,No
2021/05/30,02:20,0.165,0.150,0.238,0.232,0.232,0.129,0.080,west-northwest,2.8,No
2021/05/30,02:30,0.165,0.151,0.239,0.229,0.234,0.130,0.080,northwest,3.6,No
2021/05/30,02:40,0.166,0.150,0.237,0.231,0.232,0.129,0.079,west-northwest,3.9,No
2021/05/30,02:50,0.165,0.149,0.238,0.229,0.232,0.129,0.080,-,CALM,No
2021/05/30,03:00,0.165,0.151,0.238,0.232,0.233,0.129,0.081,north-northeast,0.7,No
2021/05/30,03:10,0.166,0.150,0.239,0.232,0.231,0.129,0.080,northwest,1.0,No
2021/05/30,03:20,0.165,0.151,0.239,0.232,0.234,0.129,0.080,northeast,1.3,No
2021/05/30,03:30,0.165,0.150,0.238,0.230,0.231,0.129,0.080,north,1.4,No
2021/05/30,03:40,0.165,0.150,0.239,0.231,0.233,0.129,0.081,north,2.1,No
2021/05/30,03:50,0.167,0.150,0.239,0.230,0.231,0.129,0.080,north-northwest,2.7,No
2021/05/30,04:00,0.165,0.150,0.238,0.230,0.232,0.128,0.080,north-northwest,1.7,No
2021/05/30,04:10,0.165,0.149,0.238,0.232,0.233,0.129,0.079,north-northwest,1.3,No
2021/05/30,04:20,0.165,0.151,0.238,0.230,0.232,0.130,0.081,northwest,1.3,No
2021/05/30,04:30,0.166,0.151,0.238,0.231,0.234,0.129,0.080,northwest,1.6,No
2021/05/30,04:40,0.166,0.150,0.238,0.230,0.231,0.129,0.079,north-northwest,1.8,No
2021/05/30,04:50,0.166,0.150,0.238,0.231,0.233,0.130,0.080,northwest,1.6,No
2021/05/30,05:00,0.165,0.150,0.238,0.230,0.232,0.130,0.080,northwest,1.3,No
2021/05/30,05:10,0.165,0.150,0.238,0.232,0.233,0.129,0.080,north-northwest,0.8,No
2021/05/30,05:20,0.166,0.150,0.238,0.229,0.232,0.130,0.080,north-northwest,1.4,No
2021/05/30,05:30,0.166,0.150,0.238,0.232,0.232,0.129,0.080,north-northwest,1.4,No
2021/05/30,05:40,0.165,0.150,0.238,0.228,0.232,0.129,0.080,north-northwest,2.0,No
2021/05/30,05:50,0.165,0.150,0.237,0.230,0.232,0.129,0.080,northwest,1.8,No
2021/05/30,06:00,0.165,0.151,0.239,0.230,0.233,0.130,0.080,northwest,2.5,No
2021/05/30,06:10,0.165,0.151,0.239,0.230,0.232,0.129,0.080,west-northwest,3.7,No
2021/05/30,06:20,0.166,0.150,0.238,0.230,0.234,0.129,0.081,west-northwest,4.5,No
2021/05/30,06:30,0.164,0.151,0.238,0.230,0.231,0.130,0.080,northwest,3.1,No
2021/05/30,06:40,0.166,0.150,0.240,0.230,0.233,0.130,0.079,north-northwest,1.8,No
2021/05/30,06:50,0.164,0.151,0.237,0.231,0.232,0.129,0.080,north-northwest,1.5,No
2021/05/30,07:00,0.164,0.150,0.239,0.231,0.232,0.129,0.081,northwest,1.1,No
2021/05/30,07:10,0.166,0.150,0.238,0.230,0.234,0.129,0.080,northwest,2.6,No
2021/05/30,07:20,0.166,0.150,0.239,0.231,0.232,0.129,0.080,north-northwest,0.7,No
2021/05/30,07:30,0.166,0.151,0.237,0.230,0.234,0.128,0.080,north-northwest,0.8,No
2021/05/30,07:40,0.165,0.149,0.238,0.232,0.230,0.129,0.080,-,CALM,No
2021/05/30,07:50,0.166,0.150,0.237,0.229,0.232,0.130,0.081,northwest,0.9,No
2021/05/30,08:00,0.165,0.150,0.236,0.230,0.233,0.130,0.080,north-northwest,0.9,No
2021/05/30,08:10,0.165,0.151,0.237,0.230,0.230,0.130,0.081,north-northwest,1.4,No
2021/05/30,08:20,0.166,0.150,0.237,0.228,0.234,0.129,0.081,north-northwest,1.7,No
2021/05/30,08:30,0.165,0.150,0.239,0.232,0.231,0.129,0.080,north-northwest,1.7,No
2021/05/30,08:40,0.167,0.150,0.237,0.230,0.233,0.129,0.081,northwest,1.6,No
2021/05/30,08:50,0.165,0.149,0.238,0.231,0.233,0.129,0.080,northwest,2.0,No
2021/05/30,09:00,0.165,0.151,0.237,0.231,0.231,0.130,0.080,west,2.1,No
2021/05/30,09:10,0.165,0.149,0.237,0.230,0.233,0.128,0.079,west-southwest,1.2,No
2021/05/30,09:20,0.166,0.149,0.237,0.231,0.232,0.130,0.080,north,1.0,No
2021/05/30,09:30,0.166,0.149,0.238,0.231,0.233,0.129,0.080,northwest,0.9,No
2021/05/30,09:40,0.165,0.151,0.237,0.233,0.234,0.129,0.081,-,CALM,No
2021/05/30,09:50,0.167,0.150,0.237,0.230,0.231,0.130,0.080,northeast,1.4,No
2021/05/30,10:00,0.164,0.150,0.239,0.229,0.232,0.129,0.079,east-northeast,1.0,No
2021/05/30,10:10,0.165,0.151,0.238,0.232,0.234,0.128,0.080,east-northeast,1.2,No
2021/05/30,10:20,0.166,0.150,0.236,0.231,0.232,0.130,0.080,northeast,2.7,No
2021/05/30,10:30,0.165,0.148,0.236,0.229,0.230,0.129,0.080,east-northeast,1.3,No
2021/05/30,10:40,0.162,0.149,0.240,0.229,0.230,0.129,0.081,-,CALM,No
2021/05/30,10:50,0.166,0.150,0.238,0.229,0.233,0.129,0.080,east-northeast,1.1,No
2021/05/30,11:00,0.166,0.150,0.237,0.231,0.233,0.129,0.081,northeast,0.8,No
2021/05/30,11:10,0.165,0.150,0.239,0.230,0.231,0.129,0.080,east-southeast,1.6,No
2021/05/30,11:20,0.166,0.150,0.238,0.231,0.234,0.130,0.080,east-northeast,1.2,No
2021/05/30,11:30,0.166,0.150,0.239,0.234,0.233,0.130,0.081,east,3.6,No
2021/05/30,11:40,0.165,0.151,0.241,0.230,0.229,0.129,0.080,east,3.6,No
2021/05/30,11:50,0.166,0.149,0.238,0.232,0.234,0.130,0.080,east,2.8,No
2021/05/30,12:00,0.165,0.151,0.240,0.232,0.233,0.130,0.081,east-northeast,1.5,No
2021/05/30,12:10,0.165,0.150,0.240,0.230,0.230,0.130,0.080,east-northeast,1.8,No
2021/05/30,12:20,0.165,0.150,0.238,0.231,0.234,0.130,0.081,east-southeast,1.5,No
2021/05/30,12:30,0.164,0.151,0.237,0.232,0.233,0.129,0.080,southeast,1.3,No
2021/05/30,12:40,0.165,0.150,0.240,0.231,0.230,0.129,0.080,east-southeast,1.7,No
2021/05/30,12:50,0.166,0.149,0.239,0.230,0.230,0.130,0.080,east,3.9,No
2021/05/30,13:00,0.166,0.151,0.236,0.232,0.233,0.130,0.081,east,3.5,No
2021/05/30,13:10,0.162,0.150,0.237,0.232,0.233,0.129,0.080,east,2.9,No
2021/05/30,13:20,0.164,0.150,0.241,0.230,0.231,0.129,0.080,east-southeast,1.9,No
2021/05/30,13:30,0.165,0.150,0.238,0.230,0.229,0.131,0.080,east-southeast,1.8,No
2021/05/30,13:40,0.165,0.151,0.237,0.231,0.233,0.129,0.080,east-southeast,1.5,No
2021/05/30,13:50,0.164,0.149,0.240,0.232,0.233,0.129,0.080,east,2.3,No
2021/05/30,14:00,0.163,0.150,0.239,0.231,0.232,0.129,0.079,east,2.4,No
2021/05/30,14:10,0.166,0.151,0.237,0.230,0.230,0.129,0.080,east-southeast,2.6,No
2021/05/30,14:20,0.167,0.150,0.238,0.232,0.234,0.129,0.080,east-southeast,2.1,No
2021/05/30,14:30,0.164,0.150,0.239,0.232,0.234,0.129,0.081,east-southeast,2.7,No
2021/05/30,14:40,0.164,0.151,0.240,0.231,0.232,0.129,0.081,east-southeast,1.1,No
2021/05/30,14:50,0.166,0.151,0.238,0.233,0.231,0.130,0.081,southeast,2.5,No
2021/05/30,15:00,0.166,0.150,0.240,0.232,0.235,0.130,0.081,south-southeast,1.5,No
2021/05/30,15:10,0.165,0.150,0.238,0.231,0.232,0.130,0.081,south-southeast,1.3,No
2021/05/30,15:20,0.166,0.150,0.241,0.233,0.233,0.129,0.080,southeast,2.9,No
2021/05/30,15:30,0.165,0.151,0.239,0.230,0.234,0.130,0.080,southeast,2.3,No
2021/05/30,15:40,0.167,0.151,0.239,0.232,0.232,0.130,0.081,east-southeast,2.3,No
2021/05/30,15:50,0.166,0.151,0.241,0.232,0.235,0.129,0.081,east,2.6,No
2021/05/30,16:00,0.165,0.152,0.238,0.231,0.231,0.130,0.081,east-southeast,1.4,No
2021/05/30,16:10,0.167,0.151,0.242,0.233,0.230,0.130,0.080,east-southeast,1.6,No
2021/05/30,16:20,0.164,0.151,0.238,0.231,0.234,0.129,0.080,east-southeast,2.3,No
2021/05/30,16:30,0.166,0.150,0.241,0.234,0.232,0.130,0.081,east-southeast,1.4,No
2021/05/30,16:40,0.166,0.151,0.238,0.232,0.231,0.129,0.081,southeast,1.4,No
2021/05/30,16:50,0.164,0.150,0.238,0.232,0.230,0.130,0.081,east-southeast,2.3,No
2021/05/30,17:00,0.166,0.151,0.239,0.233,0.235,0.130,0.080,southeast,2.0,No
2021/05/30,17:10,0.166,0.150,0.240,0.232,0.234,0.130,0.080,southeast,0.9,No
2021/05/30,17:20,0.165,0.152,0.240,0.234,0.230,0.129,0.081,southeast,1.8,No
2021/05/30,17:30,0.167,0.151,0.239,0.232,0.235,0.129,0.080,south-southeast,1.7,No
2021/05/30,17:40,0.166,0.152,0.242,0.233,0.233,0.129,0.081,south-southeast,1.8,No
2021/05/30,17:50,0.166,0.151,0.238,0.231,0.231,0.130,0.080,south-southeast,2.3,No
2021/05/30,18:00,0.166,0.150,0.241,0.233,0.233,0.129,0.080,south-southeast,2.7,No
2021/05/30,18:10,0.166,0.151,0.239,0.231,0.233,0.130,0.080,south-southeast,2.0,No
2021/05/30,18:20,0.167,0.152,0.241,0.233,0.232,0.130,0.081,south,2.9,No
2021/05/30,18:30,0.165,0.150,0.240,0.232,0.235,0.130,0.080,south,2.5,No
2021/05/30,18:40,0.167,0.151,0.240,0.234,0.234,0.130,0.081,south,2.0,No
2021/05/30,18:50,0.165,0.151,0.239,0.232,0.234,0.130,0.081,south-southwest,1.4,No
2021/05/30,19:00,0.166,0.151,0.241,0.233,0.234,0.129,0.081,south,1.7,No
2021/05/30,19:10,0.165,0.150,0.240,0.232,0.233,0.131,0.080,south,1.1,No
2021/05/30,19:20,0.167,0.150,0.238,0.232,0.234,0.130,0.080,south,3.0,No
2021/05/30,19:30,0.165,0.152,0.240,0.233,0.234,0.129,0.081,south-southwest,1.0,No
2021/05/30,19:40,0.167,0.152,0.238,0.232,0.234,0.130,0.081,south-southeast,1.9,No
2021/05/30,19:50,0.166,0.151,0.240,0.233,0.234,0.130,0.080,south,2.0,No
2021/05/30,20:00,0.167,0.152,0.242,0.232,0.233,0.130,0.081,south,1.8,No
2021/05/30,20:10,0.166,0.150,0.240,0.233,0.233,0.129,0.080,southwest,1.8,No
2021/05/30,20:20,0.167,0.151,0.241,0.234,0.235,0.130,0.080,west-northwest,2.5,No
2021/05/30,20:30,0.165,0.151,0.240,0.232,0.233,0.131,0.081,northwest,1.7,No
2021/05/30,20:40,0.166,0.151,0.241,0.234,0.235,0.130,0.080,-,CALM,No
2021/05/30,20:50,0.166,0.153,0.241,0.231,0.232,0.130,0.080,north-northwest,1.3,No
2021/05/30,21:00,0.165,0.151,0.240,0.233,0.234,0.130,0.081,northwest,1.7,No
2021/05/30,21:10,0.166,0.152,0.240,0.233,0.234,0.130,0.081,north-northwest,2.0,No
2021/05/30,21:20,0.165,0.152,0.239,0.233,0.233,0.130,0.080,north-northwest,2.2,No
2021/05/30,21:30,0.168,0.151,0.240,0.234,0.234,0.130,0.080,north-northwest,1.7,No
2021/05/30,21:40,0.166,0.151,0.240,0.233,0.232,0.130,0.081,north-northwest,2.2,No
2021/05/30,21:50,0.167,0.151,0.241,0.234,0.235,0.130,0.081,-,CALM,No
2021/05/30,22:00,0.166,0.151,0.240,0.233,0.232,0.130,0.080,northwest,1.6,No
2021/05/30,22:10,0.166,0.151,0.240,0.233,0.234,0.130,0.081,northwest,2.8,No
2021/05/30,22:20,0.167,0.151,0.240,0.233,0.234,0.130,0.081,west-northwest,3.2,No
2021/05/30,22:30,0.166,0.151,0.241,0.231,0.234,0.130,0.081,northwest,3.3,No
2021/05/30,22:40,0.168,0.151,0.240,0.233,0.234,0.130,0.081,north-northwest,3.0,No
2021/05/30,22:50,0.167,0.151,0.240,0.231,0.233,0.130,0.081,north-northwest,2.3,No
2021/05/30,23:00,0.166,0.152,0.241,0.232,0.234,0.129,0.080,west-northwest,1.6,No
2021/05/30,23:10,0.167,0.150,0.240,0.233,0.233,0.130,0.081,west-northwest,1.8,No
2021/05/30,23:20,0.167,0.152,0.239,0.232,0.234,0.131,0.081,west,2.0,No
2021/05/30,23:30,0.167,0.152,0.240,0.233,0.234,0.131,0.081,west-northwest,2.4,No
2021/05/30,23:40,0.165,0.151,0.241,0.233,0.233,0.130,0.082,northwest,2.3,No
2021/05/30,23:50,0.166,0.151,0.239,0.233,0.236,0.130,0.082,northwest,2.2,No
